DW7999 Weather Reports


time (UTC)temp
F
wind
direction
speed
knots
gust
knots
rain 1hr
in
rain 24hr
in
rain mn
in
humidity
%
barometer
mb
20260506165101 55 321 1.7 4.3 0.00 0.95 0.18 52 1013.1
20260506165017 55 310 0.0 4.3 0.00 0.95 0.18 50 1011.4
20260506164625 55 296 0.0 4.3 0.00 0.95 0.18 52 1013.2
20260506164516 55 309 0.9 6.1 0.00 0.95 0.18 51 1011.4
20260506164058 55 336 0.9 7.0 0.00 0.95 0.18 50 1013.3
20260506164016 55 317 0.9 6.1 0.00 0.95 0.18 50 1011.5
20260506163600 55 304 1.7 8.7 0.00 0.95 0.18 52 1013.3
20260506163513 55 313 0.0 2.6 0.00 0.95 0.18 53 1011.6
20260506163112 55 333 1.7 8.7 0.00 0.95 0.18 54 1013.2
20260506163016 55 324 0.0 2.6 0.00 0.95 0.18 54 1011.5
20260506162557 55 309 3.5 8.7 0.00 0.95 0.18 56 1013.3
20260506162512 55 348 0.0 2.6 0.00 0.95 0.18 56 1011.6
20260506162059 55 36 3.5 7.8 0.00 0.95 0.18 54 1013.2
20260506162013 55 331 0.0 2.6 0.00 0.95 0.18 56 1011.5
20260506161557 54 15 3.5 7.8 0.00 0.95 0.18 58 1013.3
20260506161511 54 343 0.0 2.6 0.00 0.95 0.18 56 1011.5
20260506161102 54 39 2.6 7.8 0.00 0.95 0.18 61 1013.3
20260506161013 54 331 0.0 2.6 0.00 0.95 0.18 59 1011.6
20260506160558 53 30 2.6 7.8 0.00 0.95 0.18 61 1013.3
20260506160508 53 339 0.0 1.7 0.00 0.95 0.18 62 1011.5
20260506160134 54 22 2.6 9.6 0.00 0.95 0.18 65 1013.1
20260506160008 54 355 0.0 1.7 0.00 0.95 0.18 64 1011.4
20260506155558 54 321 3.5 9.6 0.00 0.95 0.18 63 1013.0
20260506155507 54 336 0.0 1.7 0.00 0.95 0.18 65 1011.2
20260506155100 54 10 2.6 8.7 0.00 0.95 0.18 64 1013.0
20260506155006 54 355 0.0 1.7 0.00 0.95 0.18 63 1011.3
20260506154604 54 349 2.6 8.7 0.00 0.95 0.18 63 1013.0
20260506154506 54 337 0.0 1.7 0.00 0.95 0.18 65 1011.3
20260506154100 53 10 2.6 8.7 0.00 0.95 0.18 64 1013.0
20260506154005 53 342 0.0 1.7 0.00 0.95 0.18 65 1011.3
20260506153601 53 317 2.6 7.0 0.00 0.95 0.18 64 1012.9
20260506153504 53 323 0.0 1.7 0.00 0.95 0.18 65 1011.3
20260506153106 54 319 1.7 9.6 0.00 0.95 0.18 65 1013.0
20260506153003 53 338 0.0 3.5 0.00 0.95 0.18 68 1011.3
20260506152557 53 306 3.5 9.6 0.00 0.95 0.18 64 1013.0
20260506152504 53 303 0.0 3.5 0.00 0.95 0.18 66 1011.4
20260506152104 53 333 0.0 1.7 0.00 0.95 0.18 67 1011.4
20260506152101 53 32 2.6 7.8 0.00 0.95 0.18 66 1013.0
20260506151609 52 327 1.7 7.0 0.00 0.95 0.18 66 1012.8
20260506151601 52 351 0.0 1.7 0.00 0.95 0.18 66 1011.2
20260506151059 53 325 0.0 1.7 0.00 0.95 0.18 67 1011.1
20260506150558 53 300 1.7 7.0 0.00 0.95 0.18 66 1012.5
20260506150109 53 197 0.9 7.8 0.00 0.95 0.18 67 1012.3
20260506150056 53 342 0.0 3.5 0.00 0.95 0.18 67 1010.7
20260506145559 53 28 3.5 7.8 0.00 0.95 0.18 67 1012.4
20260506145556 53 340 0.0 3.5 0.00 0.95 0.18 68 1010.8
20260506145103 53 338 0.0 0.9 0.00 0.95 0.18 67 1010.8
20260506145059 53 318 1.7 6.1 0.00 0.95 0.18 67 1012.5
20260506144605 53 321 1.7 7.8 0.00 0.95 0.18 69 1012.4
20260506144558 53 327 0.0 1.7 0.00 0.95 0.18 69 1010.7
20260506144059 52 15 1.7 7.8 0.00 0.95 0.18 67 1012.3
20260506144054 52 338 0.0 3.5 0.00 0.95 0.18 68 1010.6
20260506143558 53 340 1.7 8.7 0.00 0.95 0.18 65 1012.2
20260506143553 53 360 0.0 3.5 0.00 0.95 0.18 65 1010.5
20260506143106 53 352 1.7 8.7 0.00 0.95 0.18 68 1012.3
20260506143050 53 9 0.0 2.6 0.00 0.95 0.18 69 1010.5
20260506142600 52 345 3.5 8.7 0.00 0.95 0.18 66 1012.3
20260506142548 52 349 0.0 2.6 0.00 0.95 0.18 66 1010.6
20260506142101 53 5 2.6 8.7 0.00 0.95 0.18 67 1012.2
20260506142048 53 334 0.0 1.7 0.00 0.95 0.18 68 1010.5
20260506141608 52 49 1.7 7.8 0.00 0.95 0.18 68 1012.1
20260506141547 52 15 0.0 2.6 0.00 0.95 0.18 69 1010.4
20260506141058 52 346 0.9 5.2 0.00 0.95 0.18 68 1012.2
20260506141048 52 301 0.0 2.6 0.00 0.95 0.18 71 1010.5
20260506140558 52 338 1.7 7.8 0.00 0.95 0.18 69 1012.2
20260506140555 52 332 0.0 1.7 0.00 0.95 0.18 70 1010.5
20260506140059 51 342 0.9 7.8 0.00 0.95 0.18 69 1012.2
20260506140043 51 306 0.0 2.6 0.00 0.95 0.18 70 1010.5
20260506135600 51 0 0.9 9.6 0.00 0.95 0.18 69 1012.1
20260506135541 51 299 0.0 2.6 0.00 0.95 0.18 70 1010.4
20260506135057 52 349 1.7 9.6 0.00 0.95 0.18 69 1012.2
20260506135048 52 291 0.0 2.6 0.00 0.95 0.18 70 1010.3
20260506134558 52 313 2.6 9.6 0.00 0.95 0.18 70 1012.0
20260506134539 52 302 0.0 2.6 0.00 0.95 0.18 70 1010.1
20260506134101 52 323 2.6 9.6 0.00 0.95 0.18 69 1011.7
20260506134040 52 329 0.0 2.6 0.00 0.95 0.18 70 1009.9
20260506133559 52 5 1.7 7.8 0.00 0.95 0.18 71 1011.8
20260506133538 52 322 0.0 1.7 0.00 0.95 0.18 71 1010.0
20260506133109 52 323 0.9 3.5 0.00 0.95 0.18 75 1011.7
20260506133047 52 324 0.0 3.5 0.00 0.95 0.18 75 1009.8
20260506132600 51 13 0.9 3.5 0.00 0.95 0.18 79 1011.6
20260506132535 51 288 0.0 3.5 0.00 0.95 0.18 79 1009.7
20260506132143 50 293 0.0 0.0 0.00 0.95 0.18 83 1009.7
20260506132100 50 0 0.0 2.6 0.00 0.95 0.18 83 1011.6
20260506131615 49 0 0.0 2.6 0.00 0.95 0.18 84 1011.5
20260506131534 49 293 0.0 1.7 0.00 0.95 0.18 84 1009.7
20260506131057 49 0 0.0 6.1 0.00 0.95 0.18 83 1011.6
20260506131034 49 293 0.0 2.6 0.00 0.95 0.18 84 1009.7
20260506130558 49 0 0.0 6.1 0.00 0.95 0.18 84 1011.6
20260506130533 49 293 0.0 2.6 0.00 0.95 0.18 84 1009.7
20260506130059 49 253 0.0 5.2 0.00 0.95 0.18 85 1011.5
20260506130029 49 293 0.0 1.7 0.00 0.95 0.18 85 1009.7
20260506125559 48 0 0.0 5.2 0.00 0.95 0.18 85 1011.4
20260506125528 48 293 0.0 1.7 0.00 0.95 0.18 86 1009.5
20260506125058 48 255 1.7 5.2 0.00 0.95 0.18 85 1011.4
20260506125028 48 292 0.9 2.6 0.00 0.95 0.18 86 1009.6
20260506124600 48 244 0.9 7.0 0.00 0.95 0.18 86 1011.3
20260506124527 48 290 0.9 2.6 0.00 0.95 0.18 87 1009.7
20260506124059 47 280 0.0 7.0 0.00 0.95 0.18 86 1011.2
20260506124026 47 294 0.0 0.9 0.00 0.95 0.18 87 1009.3
20260506123558 47 260 0.9 3.5 0.00 0.95 0.18 87 1011.1
20260506123526 47 293 0.0 0.9 0.00 0.95 0.18 87 1009.3
20260506123100 47 255 0.0 6.1 0.00 0.95 0.18 87 1010.9
20260506123025 47 292 0.0 2.6 0.00 0.95 0.18 88 1009.2
20260506122558 47 0 0.9 7.0 0.00 0.95 0.18 87 1010.8
20260506122524 47 292 0.0 2.6 0.00 0.95 0.18 88 1009.2
20260506122058 47 254 0.9 7.0 0.00 0.95 0.18 87 1010.9
20260506122026 46 290 0.0 2.6 0.00 0.95 0.18 88 1009.2
20260506121602 46 266 0.9 6.1 0.00 0.95 0.18 92 1010.8
20260506121522 46 275 0.0 1.7 0.00 0.95 0.18 88 1009.0
20260506121058 46 0 0.9 6.1 0.00 0.95 0.18 88 1010.7
20260506121021 46 265 0.0 0.9 0.00 0.95 0.18 88 1009.1
20260506120558 46 259 0.9 5.2 0.00 0.95 0.18 88 1010.7
20260506120521 46 305 0.0 2.6 0.00 0.95 0.18 89 1008.9
20260506120110 46 0 0.0 5.2 0.00 0.95 0.18 89 1010.4
20260506120020 46 306 0.0 1.7 0.00 0.95 0.18 89 1008.8
20260506115558 46 0 0.0 3.5 0.00 0.95 0.18 89 1010.6
20260506115519 46 305 0.0 1.7 0.00 0.95 0.18 90 1008.8
20260506115057 45 239 0.0 7.0 0.00 0.95 0.18 90 1010.6
20260506115019 46 315 0.0 0.0 0.00 0.95 0.18 91 1008.9
20260506114600 45 276 0.9 7.0 0.00 0.95 0.18 90 1010.6
20260506114521 45 315 0.0 0.0 0.00 0.95 0.18 91 1008.9
20260506114103 45 238 1.7 7.8 0.00 0.95 0.18 91 1010.8
20260506114017 45 315 0.0 0.0 0.00 0.95 0.18 92 1009.0
20260506113600 45 248 0.9 7.8 0.00 0.95 0.18 91 1010.7
20260506113518 45 315 0.0 0.0 0.00 0.95 0.18 91 1008.8
20260506113059 45 267 1.7 8.7 0.00 0.95 0.18 91 1010.8
20260506113015 45 315 0.0 0.0 0.00 0.95 0.18 91 1009.0
20260506112600 45 259 1.7 8.7 0.00 0.95 0.18 91 1010.7
20260506112515 45 315 0.0 0.0 0.00 0.95 0.18 91 1009.0
20260506112101 45 250 2.6 8.7 0.00 0.95 0.18 91 1010.6
20260506112016 45 315 0.0 0.0 0.00 0.95 0.18 92 1009.0
20260506111600 45 240 2.6 8.7 0.00 0.95 0.18 91 1010.5
20260506111514 45 315 0.0 0.0 0.00 0.95 0.18 92 1008.7
20260506111100 45 228 1.7 5.2 0.00 0.95 0.18 91 1010.6
20260506111014 45 315 0.0 0.0 0.00 0.95 0.18 92 1008.8
20260506110559 45 273 0.9 5.2 0.00 0.95 0.18 92 1010.2
20260506110514 45 315 0.0 0.0 0.00 0.95 0.18 92 1008.3
20260506110114 45 273 1.7 5.2 0.00 0.95 0.18 92 1010.1
20260506110010 45 318 0.0 0.0 0.00 0.95 0.18 92 1008.1
20260506105600 45 281 0.9 3.5 0.00 0.95 0.18 92 1009.7
20260506105510 46 318 0.0 0.0 0.00 0.95 0.18 92 1007.9
20260506105100 45 278 1.7 3.5 0.00 0.95 0.18 92 1009.7
20260506105009 45 320 0.0 0.0 0.00 0.95 0.18 92 1007.9
20260506104613 45 253 0.9 6.1 0.00 0.95 0.18 92 1009.5
20260506104525 45 320 0.0 0.0 0.00 0.95 0.18 92 1007.8
20260506104100 45 0 1.7 6.1 0.00 0.95 0.18 91 1009.7
20260506104009 45 320 0.0 0.0 0.00 0.95 0.18 92 1007.8
20260506103600 45 278 0.9 5.2 0.00 0.95 0.18 91 1009.5
20260506103508 45 320 0.0 0.0 0.00 0.95 0.18 92 1007.7
20260506103100 45 269 0.9 5.2 0.00 0.95 0.18 91 1009.3
20260506103008 45 320 0.0 0.0 0.00 0.95 0.18 92 1007.7
20260506102600 45 0 0.0 2.6 0.00 0.95 0.18 91 1009.5
20260506102507 45 320 0.0 0.0 0.00 0.95 0.18 92 1007.7
20260506102059 45 0 0.0 3.5 0.00 0.95 0.18 92 1009.6
20260506102008 45 321 0.0 0.0 0.00 0.95 0.18 92 1007.7
20260506101558 45 248 0.0 3.5 0.00 0.95 0.18 92 1009.5
20260506101509 45 321 0.0 0.0 0.00 0.95 0.18 92 1007.8
20260506101102 45 240 0.9 2.6 0.00 0.95 0.18 92 1009.6
20260506101006 45 321 0.0 0.0 0.00 0.95 0.18 92 1007.8
20260506100606 45 228 0.0 2.6 0.00 0.95 0.18 91 1009.3
20260506100506 45 321 0.0 0.0 0.00 0.95 0.18 92 1007.4
20260506100113 45 236 0.9 2.6 0.00 0.95 0.18 91 1009.4
20260506100005 45 321 0.0 0.0 0.00 0.95 0.18 92 1007.6
20260506095601 45 229 0.9 1.7 0.01 0.95 0.18 91 1009.1
20260506095505 45 321 0.0 0.0 0.01 0.95 0.18 92 1007.3
20260506095100 44 228 0.9 1.7 0.01 0.95 0.18 91 1009.0
20260506095006 44 321 0.0 0.0 0.01 0.95 0.18 92 1007.2
20260506094604 44 0 0.0 0.9 0.01 0.95 0.18 91 1008.9
20260506094506 44 321 0.0 0.0 0.01 0.95 0.18 92 1007.3
20260506094100 44 0 0.0 3.5 0.01 0.95 0.18 91 1009.1
20260506094005 44 321 0.0 0.0 0.01 0.95 0.18 92 1007.5
20260506093603 45 0 0.9 3.5 0.01 0.95 0.18 91 1009.3
20260506093504 45 321 0.0 0.0 0.01 0.95 0.18 92 1007.7
20260506093102 45 263 0.9 2.6 0.01 0.95 0.18 92 1009.7
20260506093004 45 321 0.0 0.0 0.01 0.95 0.18 92 1008.0
20260506092559 45 242 0.9 2.6 0.01 0.95 0.18 92 1009.6
20260506092504 45 321 0.0 0.0 0.01 0.95 0.18 92 1007.7
20260506092102 45 245 0.0 1.7 0.01 0.95 0.18 91 1009.5
20260506092003 45 321 0.0 0.0 0.01 0.95 0.18 92 1007.9
20260506091605 45 0 0.0 2.6 0.02 0.95 0.18 91 1009.5
20260506091503 45 321 0.0 0.0 0.02 0.95 0.18 92 1007.9
20260506091101 45 0 0.0 2.6 0.02 0.95 0.18 91 1009.7
20260506091004 45 321 0.0 0.0 0.02 0.95 0.18 92 1007.9
20260506090602 45 281 0.0 2.6 0.02 0.95 0.18 91 1009.6
20260506090504 45 321 0.0 0.0 0.02 0.95 0.18 92 1007.7
20260506090104 45 0 0.9 3.5 0.02 0.95 0.18 92 1009.5
20260506090002 45 321 0.0 0.0 0.03 0.95 0.18 92 1007.6
20260506085600 45 0 0.0 3.5 0.02 0.94 0.17 92 1009.7
20260506085503 45 321 0.0 0.0 0.02 0.94 0.17 92 1007.8
20260506085102 45 241 0.0 3.5 0.02 0.94 0.17 91 1009.5
20260506085001 45 321 0.0 0.0 0.02 0.94 0.17 92 1007.7
20260506084635 45 0 0.0 3.5 0.02 0.94 0.17 91 1009.8
20260506084600 45 321 0.0 0.0 0.02 0.94 0.17 92 1007.8
20260506084100 45 321 0.0 0.0 0.02 0.94 0.17 92 1008.0
20260506083600 45 250 0.9 2.6 0.03 0.94 0.17 91 1009.8
20260506083559 45 321 0.0 0.0 0.02 0.94 0.17 92 1008.1
20260506083100 45 236 0.9 2.6 0.03 0.94 0.17 91 1009.8
20260506083059 45 321 0.0 0.0 0.03 0.94 0.17 92 1008.0
20260506082602 45 0 0.0 1.7 0.03 0.94 0.17 91 1009.6
20260506082558 45 321 0.0 0.0 0.03 0.94 0.17 92 1007.8
20260506082059 45 266 0.0 2.6 0.04 0.94 0.17 91 1009.2
20260506081601 45 321 0.0 0.0 0.03 0.93 0.16 92 1007.3
20260506081509 45 321 0.0 0.0 0.03 0.93 0.16 92 1007.3
20260506081100 45 0 0.0 2.6 0.03 0.93 0.16 91 1009.3
20260506081056 45 321 0.0 0.0 0.03 0.93 0.16 92 1007.4
20260506080602 45 242 0.0 2.6 0.03 0.93 0.16 91 1009.5
20260506080556 45 321 0.0 0.0 0.03 0.93 0.16 92 1007.7
20260506080111 45 321 0.0 0.0 0.02 0.92 0.15 92 1007.6
20260506080105 45 263 0.0 0.9 0.03 0.93 0.16 91 1009.4
20260506073057 45 0 0.0 1.7 0.02 0.91 0.14 91 1009.6
20260506073054 45 321 0.0 0.0 0.02 0.91 0.14 91 1007.8
20260506072559 45 0 0.0 1.7 0.03 0.91 0.14 91 1009.8
20260506072556 45 321 0.0 0.0 0.03 0.91 0.14 91 1007.9
20260506072059 45 0 0.0 1.7 0.02 0.90 0.13 90 1009.8
20260506072054 45 321 0.0 0.0 0.02 0.90 0.13 91 1008.0
20260506071615 45 321 0.0 0.0 0.02 0.90 0.13 91 1007.9
20260506071559 45 0 0.0 1.7 0.02 0.90 0.13 90 1009.7
20260506071059 45 0 0.0 2.6 0.02 0.90 0.13 90 1009.6
20260506071053 45 321 0.0 0.0 0.02 0.90 0.13 91 1007.7
20260506070559 45 0 0.0 2.6 0.02 0.90 0.13 90 1009.4
20260506070553 45 321 0.0 0.0 0.02 0.90 0.13 91 1007.6
20260506062059 46 0 0.0 3.5 0.04 0.88 0.11 88 1009.5
20260506062049 46 321 0.0 0.0 0.04 0.88 0.11 88 1007.7
20260506061558 46 0 0.0 8.7 0.04 0.88 0.11 87 1009.5
20260506061546 46 321 0.0 0.0 0.04 0.88 0.11 88 1007.7
20260506061059 47 0 0.9 8.7 0.05 0.88 0.11 87 1009.5
20260506061046 47 321 0.0 0.0 0.05 0.88 0.11 87 1007.6
20260506060559 47 352 2.6 8.7 0.05 0.88 0.11 88 1009.4
20260506060545 47 321 0.0 0.0 0.05 0.88 0.11 88 1007.5
20260506051058 49 0 0.0 1.7 0.03 0.83 0.06 93 1009.5
20260506051033 48 302 0.0 0.0 0.06 0.83 0.06 94 1007.6
20260506050559 48 0 0.0 3.5 0.03 0.83 0.06 93 1009.6
20260506050533 48 302 0.0 0.0 0.06 0.83 0.06 94 1007.7
20260506050104 48 0 0.0 3.5 0.02 0.82 0.05 93 1009.6
20260506045059 48 249 0.0 1.7 0.01 0.81 0.04 93 1009.5
20260506045028 48 302 0.0 0.0 0.04 0.81 0.04 94 1007.7
20260506044559 48 259 0.0 1.7 0.00 0.80 0.03 93 1009.7
20260506044533 48 302 0.0 0.0 0.03 0.80 0.03 94 1007.7
20260506044032 48 302 0.0 0.0 0.03 0.80 0.03 94 1007.6
20260506043528 48 302 0.0 0.0 0.03 0.79 0.02 94 1007.7
20260506043028 49 302 0.0 0.0 0.02 0.78 0.01 94 1007.7
20260506042530 49 302 0.0 0.0 0.02 0.78 0.01 94 1007.6
20260506042102 49 240 0.0 2.6 0.03 0.78 0.01 93 1009.7
20260506042047 49 0 0.0 2.6 0.04 0.78 0.01 93 1009.7
20260506042026 49 302 0.0 0.0 0.03 0.78 0.01 94 1007.6
20260506041525 49 302 0.0 0.0 0.04 0.78 0.01 94 1007.5
20260506041025 49 302 0.0 0.0 0.04 0.77 0.00 94 1007.5
20260506040524 49 302 0.0 0.0 0.05 0.77 0.00 94 1007.5
20260506040039 49 302 0.0 0.0 0.06 0.77 0.77 94 1007.6
20260506035524 49 302 0.0 0.0 0.06 0.77 0.77 94 1007.5
20260506035024 49 302 0.0 0.0 0.06 0.77 0.77 94 1007.6
20260506034524 49 302 0.0 0.0 0.07 0.77 0.77 94 1007.6
20260506034024 49 302 0.0 0.0 0.07 0.77 0.77 94 1007.5
20260506033522 49 302 0.0 0.0 0.07 0.76 0.76 94 1007.7
20260506033027 49 302 0.0 0.0 0.07 0.76 0.76 94 1007.7
20260506032604 49 250 0.0 3.5 0.08 0.76 0.76 93 1009.8
20260506032522 49 302 0.0 0.0 0.08 0.76 0.76 93 1007.7
20260506032100 49 241 0.9 3.5 0.08 0.75 0.75 93 1010.0
20260506032024 49 302 0.0 0.0 0.08 0.75 0.75 94 1008.0
20260506031603 49 231 0.0 5.2 0.08 0.74 0.74 93 1010.0
20260506031523 49 302 0.0 0.0 0.08 0.74 0.74 93 1008.0
20260506031100 49 207 0.9 5.2 0.07 0.73 0.73 93 1010.0
20260506031024 49 302 0.0 0.0 0.07 0.73 0.73 93 1008.1
20260506030602 49 172 1.7 4.3 0.07 0.72 0.72 93 1010.2
20260506030521 49 302 0.0 0.0 0.07 0.72 0.72 93 1008.3
20260506030032 49 302 0.0 0.0 0.07 0.71 0.71 93 1008.2
20260506025600 49 230 2.6 7.0 0.07 0.71 0.71 93 1010.1
20260506025519 49 302 0.0 0.0 0.07 0.71 0.71 94 1008.2
20260506025105 49 218 1.7 7.0 0.08 0.71 0.71 93 1010.1
20260506025018 49 302 0.0 0.0 0.08 0.71 0.71 93 1008.1
20260506024606 49 234 1.7 6.1 0.08 0.70 0.70 93 1010.0
20260506024527 49 302 0.0 0.0 0.08 0.70 0.70 93 1008.0
20260506024101 49 232 1.7 3.5 0.10 0.70 0.70 93 1010.0
20260506024017 49 302 0.0 0.0 0.10 0.70 0.70 93 1007.8
20260506023603 49 232 0.9 5.2 0.11 0.70 0.70 93 1009.9
20260506023520 49 302 0.0 0.0 0.10 0.69 0.69 93 1007.8
20260506023110 49 238 0.9 5.2 0.10 0.69 0.69 93 1009.9
20260506023016 49 302 0.0 0.0 0.10 0.69 0.69 93 1007.9
20260506022600 49 232 0.9 4.3 0.10 0.68 0.68 93 1010.1
20260506022515 49 302 0.0 0.0 0.10 0.68 0.68 93 1007.9
20260506022100 49 277 0.9 4.3 0.10 0.67 0.67 93 1010.0
20260506022016 49 302 0.0 0.0 0.10 0.67 0.67 93 1007.9
20260506021622 49 231 0.9 3.5 0.09 0.66 0.66 93 1010.0
20260506021530 49 302 0.0 0.0 0.09 0.66 0.66 93 1007.9
20260506021126 49 302 0.0 0.0 0.09 0.66 0.66 93 1007.9
20260506021101 49 240 0.0 3.5 0.09 0.66 0.66 93 1010.1
20260506020601 49 240 0.9 3.5 0.09 0.65 0.65 93 1009.9
20260506020526 49 302 0.0 0.0 0.09 0.65 0.65 93 1007.8
20260506020214 49 240 0.9 2.6 0.08 0.64 0.64 93 1009.9
20260506020012 49 302 0.0 0.0 0.09 0.64 0.64 93 1007.8
20260506015600 49 234 0.9 2.6 0.09 0.64 0.64 93 1009.9
20260506015511 49 302 0.0 0.0 0.08 0.63 0.63 93 1007.5
20260506015100 49 205 0.9 3.5 0.08 0.63 0.63 93 1009.7
20260506015015 49 302 0.0 0.0 0.07 0.62 0.62 93 1007.5
20260506014559 49 242 0.9 5.2 0.08 0.62 0.62 93 1009.8
20260506014521 49 302 0.0 0.0 0.07 0.61 0.61 93 1007.6
20260506014102 49 231 1.7 6.1 0.06 0.60 0.60 93 1009.6
20260506014010 49 302 0.0 0.0 0.06 0.60 0.60 93 1007.5
20260506013558 49 247 0.9 6.1 0.06 0.58 0.58 93 1009.7
20260506013510 49 302 0.0 0.0 0.06 0.59 0.59 93 1007.5
20260506013109 49 234 1.7 6.1 0.07 0.58 0.58 93 1009.6
20260506013010 49 302 0.0 0.0 0.06 0.57 0.57 93 1007.5
20260506012558 49 227 1.7 4.3 0.07 0.58 0.58 93 1009.5
20260506012509 49 302 0.0 0.0 0.07 0.57 0.57 93 1007.2
20260506012101 49 250 1.7 4.3 0.07 0.57 0.57 93 1009.3
20260506012009 49 302 0.0 0.0 0.07 0.56 0.56 93 1007.2
20260506011617 49 244 0.9 3.5 0.08 0.57 0.57 92 1009.3
20260506011518 49 302 0.0 0.0 0.08 0.56 0.56 93 1007.1
20260506011103 49 235 0.9 2.6 0.08 0.57 0.57 92 1009.3
20260506011008 49 302 0.0 0.0 0.09 0.56 0.56 93 1007.1
20260506010601 49 233 0.0 2.6 0.08 0.56 0.56 92 1009.1
20260506010507 49 302 0.0 0.0 0.08 0.56 0.56 93 1006.9
20260506010100 49 225 0.0 2.6 0.08 0.55 0.55 92 1009.2
20260506010012 49 302 0.0 0.0 0.08 0.55 0.55 93 1007.0
20260506005605 49 0 0.9 3.5 0.09 0.55 0.55 92 1009.2
20260506005508 49 302 0.0 0.0 0.09 0.55 0.55 93 1007.0
20260506005100 49 234 0.9 6.1 0.10 0.55 0.55 92 1009.4
20260506005010 49 302 0.0 0.0 0.10 0.55 0.55 93 1007.2
20260506004601 49 232 1.7 6.1 0.10 0.54 0.54 92 1009.3
20260506004508 49 302 0.0 0.0 0.10 0.54 0.54 93 1007.1
20260506004100 49 234 2.6 7.0 0.10 0.54 0.54 92 1009.4
20260506004007 49 302 0.0 0.0 0.09 0.53 0.53 93 1007.1
20260506003600 49 250 2.6 7.0 0.09 0.52 0.52 92 1009.4
20260506003507 49 303 0.0 0.0 0.09 0.53 0.53 92 1007.1
20260506003059 49 227 0.0 1.7 0.09 0.52 0.52 92 1009.4
20260506003006 49 303 0.0 0.0 0.09 0.52 0.52 92 1007.1
20260506002558 49 229 0.9 2.6 0.08 0.51 0.51 92 1009.4
20260506002505 49 303 0.0 0.0 0.08 0.51 0.51 92 1007.2
20260506002449 49 229 0.0 4.3 0.07 0.50 0.50 92 1009.4
20260506002005 49 303 0.0 0.0 0.07 0.50 0.50 92 1007.1
20260506001504 49 303 0.0 0.0 0.07 0.49 0.49 92 1007.1
20260506001004 49 303 0.0 0.0 0.06 0.48 0.48 92 1006.9
20260506000504 49 303 0.0 0.0 0.06 0.48 0.48 92 1007.0
20260506000002 49 303 0.0 0.0 0.05 0.47 0.47 92 1006.8
20260505235502 49 303 0.0 0.0 0.04 0.46 0.46 92 1006.9
20260505235004 50 303 0.0 0.0 0.03 0.45 0.45 92 1006.7
20260505234505 49 303 0.0 0.0 0.02 0.44 0.44 92 1006.7
20260505234002 49 303 0.0 0.0 0.02 0.44 0.44 92 1006.7
20260505233501 50 303 0.0 0.0 0.01 0.43 0.43 92 1006.7
20260505233100 50 303 0.0 0.0 0.02 0.43 0.43 92 1006.6
20260505232600 50 303 0.0 0.0 0.03 0.43 0.43 92 1006.7
20260505232100 50 303 0.0 0.0 0.04 0.43 0.43 92 1006.7
20260505231559 50 303 0.0 0.0 0.03 0.42 0.42 92 1006.7
20260505231059 50 303 0.0 0.0 0.04 0.42 0.42 92 1006.7
20260505230559 50 303 0.0 0.0 0.06 0.42 0.42 91 1006.7
20260505230057 50 303 0.0 0.0 0.07 0.42 0.42 91 1006.6
20260505225558 50 303 0.0 0.0 0.09 0.42 0.42 91 1006.5
20260505225100 50 0 0.0 1.7 0.11 0.42 0.42 90 1008.9
20260505225055 50 303 0.0 0.0 0.11 0.42 0.42 91 1006.6
20260505224603 50 277 0.0 1.7 0.11 0.42 0.42 90 1009.1
20260505224555 50 303 0.0 0.0 0.11 0.42 0.42 91 1006.7
20260505224101 50 0 0.0 1.7 0.12 0.42 0.42 90 1009.1
20260505224055 50 303 0.0 0.0 0.12 0.42 0.42 91 1006.8
20260505223604 51 0 0.0 2.6 0.13 0.42 0.42 91 1009.2
20260505223554 51 303 0.0 0.0 0.13 0.42 0.42 91 1006.9
20260505223106 51 303 0.0 0.0 0.13 0.41 0.41 91 1006.9
20260505223100 51 0 0.0 2.6 0.13 0.41 0.41 91 1009.3
20260505222600 50 0 0.0 2.6 0.13 0.40 0.40 91 1009.3
20260505222552 50 303 0.0 0.0 0.13 0.40 0.40 91 1006.9
20260505222058 51 0 0.0 3.5 0.13 0.39 0.39 90 1009.1
20260505222052 51 303 0.0 0.0 0.13 0.39 0.39 91 1006.9
20260505221604 51 0 0.0 3.5 0.14 0.39 0.39 91 1009.0
20260505221552 51 303 0.0 0.0 0.14 0.39 0.39 91 1006.7
20260505221100 51 261 0.9 3.5 0.13 0.37 0.37 90 1008.9
20260505221050 51 303 0.0 0.0 0.13 0.37 0.37 91 1006.6
20260505220600 51 254 0.0 2.6 0.12 0.36 0.36 90 1008.9
20260505220550 51 303 0.0 0.0 0.12 0.36 0.36 91 1006.7
20260505220050 51 303 0.0 0.0 0.12 0.35 0.35 91 1006.5
20260505215600 51 340 0.0 2.6 0.10 0.32 0.32 90 1009.0
20260505215549 51 303 0.0 0.0 0.10 0.32 0.32 91 1006.6
20260505215100 51 0 0.0 2.6 0.10 0.31 0.31 90 1008.8
20260505215049 51 303 0.0 0.0 0.10 0.31 0.31 91 1006.4
20260505214600 51 0 0.0 2.6 0.11 0.31 0.31 90 1008.8
20260505214556 51 303 0.0 1.7 0.11 0.31 0.31 90 1006.5
20260505214100 51 0 0.0 4.3 0.10 0.30 0.30 90 1008.8
20260505214051 51 303 0.0 1.7 0.10 0.30 0.30 90 1006.5
20260505213600 51 0 0.0 4.3 0.10 0.29 0.29 90 1009.0
20260505213547 51 303 0.0 1.7 0.10 0.28 0.28 90 1006.6
20260505213100 51 329 0.9 3.5 0.10 0.28 0.28 90 1009.0
20260505213046 51 303 0.0 2.6 0.10 0.28 0.28 90 1006.7
20260505212558 51 0 0.0 3.5 0.10 0.27 0.27 90 1009.0
20260505212545 51 304 0.0 2.6 0.09 0.27 0.27 90 1006.7
20260505212058 51 0 0.9 7.8 0.09 0.26 0.26 90 1008.8
20260505212045 51 306 0.0 3.5 0.09 0.26 0.26 90 1006.4
20260505211559 52 352 0.9 7.8 0.08 0.25 0.25 90 1008.7
20260505211550 52 295 0.0 2.6 0.08 0.25 0.25 90 1006.2
20260505211101 52 260 0.9 3.5 0.08 0.24 0.24 90 1008.4
20260505211044 52 309 0.0 0.0 0.07 0.24 0.24 90 1006.1
20260505210600 52 334 0.0 3.5 0.08 0.24 0.24 90 1008.5
20260505210543 52 309 0.0 0.0 0.07 0.23 0.23 90 1006.1
20260505210043 52 309 0.0 0.0 0.07 0.23 0.23 90 1006.2
20260505205604 52 311 0.0 7.0 0.06 0.22 0.22 89 1008.6
20260505205541 52 309 0.0 0.0 0.06 0.22 0.22 90 1006.3
20260505205101 52 0 1.7 7.0 0.06 0.21 0.21 89 1008.5
20260505205041 52 306 0.0 0.0 0.06 0.21 0.21 89 1006.3
20260505204558 52 329 0.0 3.5 0.05 0.20 0.20 89 1008.7
20260505204540 52 301 0.0 0.9 0.05 0.20 0.20 89 1006.3
20260505204100 52 323 0.0 2.6 0.06 0.20 0.20 89 1008.5
20260505204040 52 292 0.0 0.0 0.06 0.20 0.20 89 1006.2
20260505203601 52 0 0.0 3.5 0.05 0.19 0.19 89 1008.5
20260505203539 52 291 0.0 0.0 0.05 0.19 0.19 89 1006.2
20260505203121 52 270 0.0 3.5 0.05 0.18 0.18 88 1008.7
20260505203050 52 291 0.0 0.0 0.05 0.18 0.18 89 1006.4
20260505202604 52 250 0.0 2.6 0.05 0.17 0.17 88 1008.9
20260505202539 52 291 0.0 0.9 0.05 0.17 0.17 89 1006.5
20260505202101 53 246 0.0 3.5 0.06 0.17 0.17 89 1008.8
20260505202039 53 291 0.0 0.9 0.06 0.17 0.17 89 1006.5
20260505201604 53 0 0.0 3.5 0.06 0.17 0.17 89 1008.8
20260505201538 53 290 0.0 0.0 0.06 0.17 0.17 89 1006.4
20260505201101 53 251 0.9 5.2 0.05 0.16 0.16 89 1009.0
20260505201038 53 290 0.0 0.0 0.05 0.16 0.16 89 1006.6
20260505200558 53 0 0.9 8.7 0.06 0.16 0.16 89 1009.1
20260505200538 53 290 0.0 0.0 0.06 0.16 0.16 89 1006.6
20260505200100 53 279 1.7 8.7 0.06 0.16 0.16 89 1009.2
20260505200038 53 290 0.0 1.7 0.06 0.16 0.16 89 1006.7
20260505195602 53 288 1.7 7.8 0.07 0.16 0.16 89 1009.2
20260505195539 53 296 0.0 1.7 0.07 0.16 0.16 90 1006.7
20260505195101 53 0 0.9 7.0 0.06 0.15 0.15 89 1009.2
20260505195036 53 294 0.0 0.0 0.07 0.15 0.15 90 1006.8
20260505194600 53 267 1.7 7.8 0.07 0.15 0.15 89 1009.1
20260505194541 53 294 0.0 0.0 0.08 0.15 0.15 89 1006.7
20260505194103 53 247 2.6 8.7 0.08 0.14 0.14 88 1008.9
20260505194044 53 294 0.0 1.7 0.08 0.14 0.14 89 1006.5
20260505193604 53 242 1.7 8.7 0.09 0.14 0.14 88 1009.3
20260505193534 53 295 0.0 1.7 0.09 0.14 0.14 89 1006.8
20260505193101 53 215 1.7 8.7 0.08 0.13 0.13 88 1009.3
20260505193033 53 288 0.0 3.5 0.08 0.13 0.13 89 1006.9
20260505192602 53 246 2.6 8.7 0.08 0.12 0.12 88 1009.2
20260505192535 53 295 0.0 2.6 0.08 0.12 0.12 89 1006.6
20260505192057 54 242 2.6 9.6 0.07 0.11 0.11 88 1009.1
20260505192031 54 294 0.0 1.7 0.07 0.11 0.11 89 1006.6
20260505191612 54 235 1.7 9.6 0.08 0.11 0.11 88 1009.2
20260505191533 54 292 0.0 3.5 0.08 0.11 0.11 89 1006.6
20260505191101 54 225 2.6 9.6 0.08 0.11 0.11 88 1008.8
20260505191030 54 295 0.0 2.6 0.08 0.11 0.11 89 1006.5
20260505190600 54 0 0.9 8.7 0.08 0.10 0.10 88 1008.8
20260505190529 54 294 0.0 0.0 0.08 0.10 0.10 89 1006.4
20260505190058 55 270 0.9 8.7 0.08 0.10 0.10 88 1008.7
20260505190027 54 294 0.0 2.6 0.08 0.10 0.10 88 1006.4
20260505185602 55 245 3.5 8.7 0.08 0.09 0.09 88 1008.9
20260505185526 55 294 0.0 2.6 0.08 0.09 0.09 88 1006.6
20260505185100 55 256 1.7 8.7 0.08 0.09 0.09 87 1008.9
20260505185034 55 294 0.0 2.6 0.07 0.08 0.08 88 1006.5
20260505184603 55 244 2.6 8.7 0.08 0.08 0.08 87 1008.8
20260505184529 55 295 0.0 2.6 0.07 0.07 0.07 88 1006.4
20260505184100 55 276 0.9 9.6 0.06 0.06 0.06 87 1008.7
20260505184023 55 270 0.0 0.0 0.06 0.06 0.06 88 1006.4
20260505183600 55 246 2.6 10.4 0.05 0.05 0.05 87 1008.7
20260505183522 55 270 0.0 0.9 0.05 0.05 0.05 87 1006.2
20260505183058 55 237 2.6 10.4 0.05 0.05 0.05 86 1008.5
20260505183026 56 271 0.0 0.9 0.05 0.05 0.05 86 1006.1
20260505182600 56 266 4.3 8.7 0.04 0.04 0.04 85 1008.5
20260505182524 56 271 0.0 1.7 0.04 0.04 0.04 86 1006.0
20260505182058 56 209 3.5 9.6 0.04 0.04 0.04 85 1008.4
20260505182018 56 238 0.0 1.7 0.04 0.04 0.04 86 1006.0
20260505181602 56 251 2.6 9.6 0.03 0.03 0.03 85 1008.4
20260505181518 57 244 0.0 0.0 0.03 0.03 0.03 86 1006.0
20260505181058 57 244 3.5 9.6 0.03 0.03 0.03 85 1008.3
20260505181016 57 224 0.0 0.0 0.03 0.03 0.03 85 1005.9
20260505180559 57 219 2.6 8.7 0.02 0.02 0.02 84 1008.2
20260505180518 57 224 0.0 2.6 0.02 0.02 0.02 85 1005.7
20260505180103 57 225 3.5 8.7 0.02 0.02 0.02 83 1008.0
20260505180014 57 220 0.0 2.6 0.02 0.02 0.02 84 1005.7
20260505175557 57 225 1.7 6.1 0.01 0.01 0.01 83 1008.0
20260505175513 57 273 0.0 0.0 0.01 0.01 0.01 83 1005.6
20260505175104 58 214 2.6 6.1 0.01 0.01 0.01 81 1008.1
20260505175012 58 273 0.0 0.0 0.01 0.01 0.01 81 1005.6
20260505174606 58 232 1.7 8.7 0.00 0.00 0.00 80 1007.9
20260505174511 58 273 0.0 0.9 0.00 0.00 0.00 80 1005.4
20260505174119 58 273 0.0 0.9 0.00 0.00 0.00 78 1005.5
20260505174101 58 227 2.6 8.7 0.00 0.00 0.00 77 1008.1
20260505173600 59 254 0.9 6.1 0.00 0.00 0.00 77 1008.2
20260505173508 59 273 0.0 2.6 0.00 0.00 0.00 78 1005.7
20260505173100 59 282 0.9 7.0 0.00 0.00 0.00 78 1008.1
20260505173007 59 273 0.0 0.9 0.00 0.00 0.00 78 1005.6
20260505172601 60 248 1.7 7.0 0.00 0.00 0.00 76 1008.1
20260505172507 59 273 0.0 0.9 0.00 0.00 0.00 77 1005.6
20260505172100 60 273 1.7 7.8 0.00 0.00 0.00 78 1008.1
20260505172006 60 269 0.0 0.0 0.00 0.00 0.00 79 1005.7
20260505171601 60 259 1.7 7.8 0.00 0.00 0.00 78 1008.1
20260505171507 60 269 0.0 0.0 0.00 0.00 0.00 79 1005.7
20260505171100 60 269 4.3 7.8 0.00 0.00 0.00 78 1008.3
20260505171006 60 269 0.0 0.9 0.00 0.00 0.00 79 1005.8
20260505170600 60 223 2.6 12.2 0.00 0.00 0.00 78 1008.2
20260505170512 60 269 0.0 0.9 0.00 0.00 0.00 79 1005.8
20260505170110 60 247 4.3 12.2 0.00 0.00 0.00 77 1008.2
20260505170004 60 263 0.0 3.5 0.00 0.00 0.00 77 1005.8
20260505165600 61 242 5.2 12.2 0.00 0.00 0.00 76 1008.2
20260505165504 61 263 0.0 3.5 0.00 0.00 0.00 76 1005.8